Time,TemperatureF,DewpointF,PressureIn,WindDirection,WindDirectionDegrees,WindSpeedMPH,WindSpeedGustMPH,Humidity,HourlyPrecipIn,Conditions,Clouds,dailyrainin,SoftwareType,DateUTC
2013-07-30 00:01:00,66.8,59.7,30.13,North,6,0.0,-999.0,78,0.00,,,0.00,Wunderground v.1.12,2013-07-30 04:01:00,
2013-07-30 00:03:00,66.8,59.7,30.13,North,6,0.0,-999.0,78,0.00,,,0.00,Wunderground v.1.12,2013-07-30 04:03:00,
2013-07-30 00:07:00,66.6,59.5,30.13,North,6,0.0,-999.0,78,0.00,,,0.00,Wunderground v.1.12,2013-07-30 04:07:00,
2013-07-30 00:08:00,66.6,59.5,30.13,North,6,0.0,-999.0,78,0.00,,,0.00,Wunderground v.1.12,2013-07-30 04:08:00,
2013-07-30 00:14:00,66.4,59.7,30.12,North,6,0.0,-999.0,79,0.00,,,0.00,Wunderground v.1.12,2013-07-30 04:14:00,
2013-07-30 00:20:00,66.3,59.6,30.12,North,6,0.0,-999.0,79,0.00,,,0.00,Wunderground v.1.12,2013-07-30 04:20:00,
2013-07-30 00:26:00,66.1,59.4,30.12,North,6,0.0,-999.0,79,0.00,,,0.00,Wunderground v.1.12,2013-07-30 04:26:00,
2013-07-30 00:32:00,66.0,59.3,30.12,North,6,0.0,-999.0,79,0.00,,,0.00,Wunderground v.1.12,2013-07-30 04:32:00,
2013-07-30 00:38:00,65.8,59.5,30.12,North,6,0.0,-999.0,80,0.00,,,0.00,Wunderground v.1.12,2013-07-30 04:38:00,
2013-07-30 00:43:00,65.8,59.5,30.12,North,6,0.0,-999.0,80,0.00,,,0.00,Wunderground v.1.12,2013-07-30 04:43:00,
2013-07-30 00:48:00,65.6,59.3,30.12,North,6,0.0,-999.0,80,0.00,,,0.00,Wunderground v.1.12,2013-07-30 04:48:00,
2013-07-30 00:54:00,65.5,59.2,30.12,North,6,0.0,-999.0,80,0.00,,,0.00,Wunderground v.1.12,2013-07-30 04:54:00,
2013-07-30 00:59:00,65.5,59.5,30.12,North,6,0.0,-999.0,81,0.00,,,0.00,Wunderground v.1.12,2013-07-30 04:59:00,
2013-07-30 01:05:00,65.3,59.3,30.12,North,6,0.0,-999.0,81,0.00,,,0.00,Wunderground v.1.12,2013-07-30 05:05:00,
2013-07-30 01:10:00,65.3,59.3,30.12,North,6,0.0,-999.0,81,0.00,,,0.00,Wunderground v.1.12,2013-07-30 05:10:00,
2013-07-30 01:15:00,65.2,59.2,30.12,North,6,0.0,-999.0,81,0.00,,,0.00,Wunderground v.1.12,2013-07-30 05:15:00,
2013-07-30 01:21:00,65.2,59.2,30.12,North,6,0.0,-999.0,81,0.00,,,0.00,Wunderground v.1.12,2013-07-30 05:21:00,
2013-07-30 01:26:00,65.0,59.0,30.12,North,6,0.0,-999.0,81,0.00,,,0.00,Wunderground v.1.12,2013-07-30 05:26:00,
2013-07-30 01:32:00,64.8,59.2,30.12,North,6,0.0,-999.0,82,0.00,,,0.00,Wunderground v.1.12,2013-07-30 05:32:00,
2013-07-30 01:38:00,64.8,59.2,30.12,North,6,0.0,-999.0,82,0.00,,,0.00,Wunderground v.1.12,2013-07-30 05:38:00,
2013-07-30 01:43:00,64.7,59.1,30.11,North,6,0.0,-999.0,82,0.00,,,0.00,Wunderground v.1.12,2013-07-30 05:43:00,
2013-07-30 01:48:00,64.5,58.9,30.11,North,6,0.0,-999.0,82,0.00,,,0.00,Wunderground v.1.12,2013-07-30 05:48:00,
2013-07-30 01:53:00,64.5,58.9,30.11,North,6,0.0,-999.0,82,0.00,,,0.00,Wunderground v.1.12,2013-07-30 05:53:00,
2013-07-30 01:59:00,64.3,58.7,30.11,North,6,0.0,-999.0,82,0.00,,,0.00,Wunderground v.1.12,2013-07-30 05:59:00,
2013-07-30 02:04:00,64.3,58.7,30.11,North,6,0.0,-999.0,82,0.00,,,0.00,Wunderground v.1.12,2013-07-30 06:04:00,
2013-07-30 02:09:00,64.2,58.9,30.11,North,6,0.0,-999.0,83,0.00,,,0.00,Wunderground v.1.12,2013-07-30 06:09:00,
2013-07-30 02:14:00,64.2,58.9,30.11,North,6,0.0,-999.0,83,0.00,,,0.00,Wunderground v.1.12,2013-07-30 06:14:00,
2013-07-30 02:19:00,64.0,58.7,30.11,North,6,0.0,-999.0,83,0.00,,,0.00,Wunderground v.1.12,2013-07-30 06:19:00,
2013-07-30 02:20:00,64.0,58.7,30.11,North,6,0.0,-999.0,83,0.00,,,0.00,Wunderground v.1.12,2013-07-30 06:20:00,
2013-07-30 02:25:00,64.0,58.7,30.10,North,6,0.0,-999.0,83,0.00,,,0.00,Wunderground v.1.12,2013-07-30 06:25:00,
2013-07-30 02:30:00,63.9,58.6,30.10,North,6,0.0,-999.0,83,0.00,,,0.00,Wunderground v.1.12,2013-07-30 06:30:00,
2013-07-30 02:35:00,63.9,59.0,30.10,North,6,0.0,-999.0,84,0.00,,,0.00,Wunderground v.1.12,2013-07-30 06:35:00,
2013-07-30 02:40:00,63.7,58.8,30.10,North,6,0.0,-999.0,84,0.00,,,0.00,Wunderground v.1.12,2013-07-30 06:40:00,
2013-07-30 02:45:00,63.5,58.6,30.10,North,6,0.0,-999.0,84,0.00,,,0.00,Wunderground v.1.12,2013-07-30 06:45:00,
2013-07-30 02:50:00,63.5,58.6,30.10,North,6,0.0,-999.0,84,0.00,,,0.00,Wunderground v.1.12,2013-07-30 06:50:00,
2013-07-30 02:55:00,63.5,58.6,30.10,North,6,0.0,-999.0,84,0.00,,,0.00,Wunderground v.1.12,2013-07-30 06:55:00,
2013-07-30 03:00:00,63.4,58.5,30.10,North,6,0.0,-999.0,84,0.00,,,0.00,Wunderground v.1.12,2013-07-30 07:00:00,
2013-07-30 03:05:00,63.4,58.5,30.10,North,6,0.0,-999.0,84,0.00,,,0.00,Wunderground v.1.12,2013-07-30 07:05:00,
2013-07-30 03:10:00,63.2,58.3,30.10,North,6,0.0,-999.0,84,0.00,,,0.00,Wunderground v.1.12,2013-07-30 07:10:00,
2013-07-30 03:15:00,63.2,58.3,30.10,North,6,0.0,-999.0,84,0.00,,,0.00,Wunderground v.1.12,2013-07-30 07:15:00,
2013-07-30 03:20:00,63.1,58.2,30.10,North,6,0.0,-999.0,84,0.00,,,0.00,Wunderground v.1.12,2013-07-30 07:20:00,
2013-07-30 03:25:00,63.1,58.5,30.10,North,6,0.0,-999.0,85,0.00,,,0.00,Wunderground v.1.12,2013-07-30 07:25:00,
2013-07-30 03:30:00,63.1,58.5,30.10,North,6,0.0,-999.0,85,0.00,,,0.00,Wunderground v.1.12,2013-07-30 07:30:00,
2013-07-30 03:35:00,62.9,58.3,30.10,North,6,0.0,-999.0,85,0.00,,,0.00,Wunderground v.1.12,2013-07-30 07:35:00,
2013-07-30 03:40:00,62.7,58.1,30.11,North,6,0.0,-999.0,85,0.00,,,0.00,Wunderground v.1.12,2013-07-30 07:40:00,
2013-07-30 03:45:00,62.7,58.1,30.11,North,6,0.0,-999.0,85,0.00,,,0.00,Wunderground v.1.12,2013-07-30 07:45:00,
2013-07-30 03:50:00,62.6,58.0,30.11,North,6,0.0,-999.0,85,0.00,,,0.00,Wunderground v.1.12,2013-07-30 07:50:00,
2013-07-30 03:55:00,62.6,58.0,30.11,North,6,0.0,-999.0,85,0.00,,,0.00,Wunderground v.1.12,2013-07-30 07:55:00,
2013-07-30 04:01:00,62.4,58.2,30.11,North,6,0.0,-999.0,86,0.00,,,0.00,Wunderground v.1.12,2013-07-30 08:01:00,
2013-07-30 04:06:00,62.4,58.2,30.11,North,6,0.0,-999.0,86,0.00,,,0.00,Wunderground v.1.12,2013-07-30 08:06:00,
2013-07-30 04:11:00,62.3,58.1,30.12,North,6,0.0,-999.0,86,0.00,,,0.00,Wunderground v.1.12,2013-07-30 08:11:00,
2013-07-30 04:16:00,62.3,58.1,30.12,North,6,0.0,-999.0,86,0.00,,,0.00,Wunderground v.1.12,2013-07-30 08:16:00,
2013-07-30 04:21:00,62.3,58.1,30.12,North,6,0.0,-999.0,86,0.00,,,0.00,Wunderground v.1.12,2013-07-30 08:21:00,
2013-07-30 04:26:00,62.1,57.9,30.12,North,6,0.0,-999.0,86,0.00,,,0.00,Wunderground v.1.12,2013-07-30 08:26:00,
2013-07-30 04:31:00,62.1,58.2,30.12,North,6,0.0,-999.0,87,0.00,,,0.00,Wunderground v.1.12,2013-07-30 08:31:00,
2013-07-30 04:36:00,62.0,58.1,30.12,North,6,0.0,-999.0,87,0.00,,,0.00,Wunderground v.1.12,2013-07-30 08:36:00,
2013-07-30 04:41:00,62.0,58.1,30.12,North,6,0.0,-999.0,87,0.00,,,0.00,Wunderground v.1.12,2013-07-30 08:41:00,
2013-07-30 04:47:00,61.8,57.9,30.12,North,6,0.0,-999.0,87,0.00,,,0.00,Wunderground v.1.12,2013-07-30 08:47:00,
2013-07-30 04:52:00,61.8,57.9,30.12,North,6,0.0,-999.0,87,0.00,,,0.00,Wunderground v.1.12,2013-07-30 08:52:00,
2013-07-30 04:57:00,61.6,57.7,30.12,North,6,0.0,-999.0,87,0.00,,,0.00,Wunderground v.1.12,2013-07-30 08:57:00,
2013-07-30 05:02:00,61.6,57.7,30.12,North,6,0.0,-999.0,87,0.00,,,0.00,Wunderground v.1.12,2013-07-30 09:02:00,
2013-07-30 05:07:00,61.5,57.6,30.12,North,6,0.0,-999.0,87,0.00,,,0.00,Wunderground v.1.12,2013-07-30 09:07:00,
2013-07-30 05:12:00,61.5,57.6,30.13,North,6,0.0,-999.0,87,0.00,,,0.00,Wunderground v.1.12,2013-07-30 09:12:00,
2013-07-30 05:17:00,61.3,57.4,30.13,North,6,0.0,-999.0,87,0.00,,,0.00,Wunderground v.1.12,2013-07-30 09:17:00,
2013-07-30 05:22:00,61.3,57.7,30.13,North,6,0.0,-999.0,88,0.00,,,0.00,Wunderground v.1.12,2013-07-30 09:22:00,
2013-07-30 05:27:00,61.2,57.6,30.14,North,6,0.0,-999.0,88,0.00,,,0.00,Wunderground v.1.12,2013-07-30 09:27:00,
2013-07-30 05:32:00,61.2,57.6,30.14,North,6,0.0,-999.0,88,0.00,,,0.00,Wunderground v.1.12,2013-07-30 09:32:00,
2013-07-30 05:37:00,61.0,57.4,30.14,North,6,0.0,-999.0,88,0.00,,,0.00,Wunderground v.1.12,2013-07-30 09:37:00,
2013-07-30 05:42:00,61.0,57.4,30.14,North,6,0.0,-999.0,88,0.00,,,0.00,Wunderground v.1.12,2013-07-30 09:42:00,
2013-07-30 05:47:00,60.9,57.3,30.14,North,6,0.0,-999.0,88,0.00,,,0.00,Wunderground v.1.12,2013-07-30 09:47:00,
2013-07-30 05:53:00,60.7,57.1,30.14,North,6,0.0,-999.0,88,0.00,,,0.00,Wunderground v.1.12,2013-07-30 09:53:00,
2013-07-30 05:58:00,60.7,57.1,30.14,North,6,0.0,-999.0,88,0.00,,,0.00,Wunderground v.1.12,2013-07-30 09:58:00,
2013-07-30 06:03:00,60.5,56.9,30.14,North,6,0.0,-999.0,88,0.00,,,0.00,Wunderground v.1.12,2013-07-30 10:03:00,
2013-07-30 06:09:00,60.5,56.9,30.14,North,6,0.0,-999.0,88,0.00,,,0.00,Wunderground v.1.12,2013-07-30 10:09:00,
2013-07-30 06:14:00,60.5,56.9,30.15,North,6,0.0,-999.0,88,0.00,,,0.00,Wunderground v.1.12,2013-07-30 10:14:00,
2013-07-30 06:19:00,60.4,56.8,30.15,North,6,0.0,-999.0,88,0.00,,,0.00,Wunderground v.1.12,2013-07-30 10:19:00,
2013-07-30 06:24:00,60.4,56.8,30.15,North,6,0.0,-999.0,88,0.00,,,0.00,Wunderground v.1.12,2013-07-30 10:24:00,
2013-07-30 06:29:00,60.2,56.6,30.15,North,6,0.0,-999.0,88,0.00,,,0.00,Wunderground v.1.12,2013-07-30 10:29:00,
2013-07-30 06:34:00,60.2,56.9,30.15,North,6,0.0,-999.0,89,0.00,,,0.00,Wunderground v.1.12,2013-07-30 10:34:00,
2013-07-30 06:39:00,60.2,56.9,30.15,North,6,0.0,-999.0,89,0.00,,,0.00,Wunderground v.1.12,2013-07-30 10:39:00,
2013-07-30 06:44:00,60.1,56.8,30.16,North,6,0.0,-999.0,89,0.00,,,0.00,Wunderground v.1.12,2013-07-30 10:44:00,
2013-07-30 06:49:00,60.1,56.8,30.16,North,6,0.0,-999.0,89,0.00,,,0.00,Wunderground v.1.12,2013-07-30 10:49:00,
2013-07-30 06:54:00,60.1,56.8,30.16,North,6,0.0,-999.0,89,0.00,,,0.00,Wunderground v.1.12,2013-07-30 10:54:00,
2013-07-30 06:59:00,59.9,56.6,30.16,North,6,0.0,-999.0,89,0.00,,,0.00,Wunderground v.1.12,2013-07-30 10:59:00,
2013-07-30 07:04:00,59.9,56.6,30.16,North,6,0.0,-999.0,89,0.00,,,0.00,Wunderground v.1.12,2013-07-30 11:04:00,
2013-07-30 07:09:00,59.9,56.6,30.16,North,6,0.0,-999.0,89,0.00,,,0.00,Wunderground v.1.12,2013-07-30 11:09:00,
2013-07-30 07:14:00,59.8,56.6,30.16,North,6,0.0,-999.0,89,0.00,,,0.00,Wunderground v.1.12,2013-07-30 11:14:00,
2013-07-30 07:19:00,59.8,56.6,30.16,North,6,0.0,-999.0,89,0.00,,,0.00,Wunderground v.1.12,2013-07-30 11:19:00,
2013-07-30 07:24:00,59.6,56.4,30.16,North,6,0.0,-999.0,89,0.00,,,0.00,Wunderground v.1.12,2013-07-30 11:24:00,
2013-07-30 07:29:00,59.6,56.4,30.17,North,6,0.0,-999.0,89,0.00,,,0.00,Wunderground v.1.12,2013-07-30 11:29:00,
2013-07-30 07:34:00,59.8,56.6,30.17,North,6,0.0,-999.0,89,0.00,,,0.00,Wunderground v.1.12,2013-07-30 11:34:00,
2013-07-30 07:39:00,59.8,56.9,30.17,North,6,0.0,-999.0,90,0.00,,,0.00,Wunderground v.1.12,2013-07-30 11:39:00,
2013-07-30 07:44:00,59.9,57.0,30.17,North,6,0.0,-999.0,90,0.00,,,0.00,Wunderground v.1.12,2013-07-30 11:44:00,
2013-07-30 07:49:00,60.1,57.2,30.17,North,6,0.0,-999.0,90,0.00,,,0.00,Wunderground v.1.12,2013-07-30 11:49:00,
2013-07-30 07:54:00,60.2,57.6,30.17,North,6,0.0,-999.0,91,0.00,,,0.00,Wunderground v.1.12,2013-07-30 11:54:00,
2013-07-30 07:59:00,60.5,57.9,30.17,North,6,0.0,-999.0,91,0.00,,,0.00,Wunderground v.1.12,2013-07-30 11:59:00,
2013-07-30 08:04:00,60.9,58.6,30.17,North,6,0.0,-999.0,92,0.00,,,0.00,Wunderground v.1.12,2013-07-30 12:04:00,
2013-07-30 08:09:00,61.2,58.9,30.17,North,6,0.0,-999.0,92,0.00,,,0.00,Wunderground v.1.12,2013-07-30 12:09:00,
2013-07-30 08:14:00,61.6,59.3,30.18,North,6,0.0,-999.0,92,0.00,,,0.00,Wunderground v.1.12,2013-07-30 12:14:00,
2013-07-30 08:19:00,62.0,60.0,30.18,North,6,0.0,-999.0,93,0.00,,,0.00,Wunderground v.1.12,2013-07-30 12:19:00,
2013-07-30 08:24:00,62.3,60.2,30.17,North,6,0.0,-999.0,93,0.00,,,0.00,Wunderground v.1.12,2013-07-30 12:24:00,
2013-07-30 08:29:00,62.6,60.5,30.17,North,6,0.0,-999.0,93,0.00,,,0.00,Wunderground v.1.12,2013-07-30 12:29:00,
2013-07-30 08:34:00,63.1,61.3,30.17,North,6,0.0,-999.0,94,0.00,,,0.00,Wunderground v.1.12,2013-07-30 12:34:00,
2013-07-30 08:39:00,63.4,61.6,30.17,North,6,0.0,-999.0,94,0.00,,,0.00,Wunderground v.1.12,2013-07-30 12:39:00,
2013-07-30 08:44:00,63.9,62.1,30.17,North,6,0.0,-999.0,94,0.00,,,0.00,Wunderground v.1.12,2013-07-30 12:44:00,
2013-07-30 08:49:00,64.2,62.4,30.17,North,6,0.0,-999.0,94,0.00,,,0.00,Wunderground v.1.12,2013-07-30 12:49:00,
2013-07-30 08:54:00,64.5,62.7,30.17,North,6,0.0,-999.0,94,0.00,,,0.00,Wunderground v.1.12,2013-07-30 12:54:00,
2013-07-30 08:59:00,65.0,63.2,30.17,North,6,0.0,-999.0,94,0.00,,,0.00,Wunderground v.1.12,2013-07-30 12:59:00,
2013-07-30 09:05:00,65.3,63.5,30.17,North,6,0.0,-999.0,94,0.00,,,0.00,Wunderground v.1.12,2013-07-30 13:05:00,
2013-07-30 09:10:00,65.6,63.8,30.17,North,6,0.0,-999.0,94,0.00,,,0.00,Wunderground v.1.12,2013-07-30 13:10:00,
2013-07-30 09:15:00,66.0,64.2,30.17,North,6,0.0,-999.0,94,0.00,,,0.00,Wunderground v.1.12,2013-07-30 13:15:00,
2013-07-30 09:20:00,66.1,64.3,30.17,North,6,0.0,-999.0,94,0.00,,,0.00,Wunderground v.1.12,2013-07-30 13:20:00,
2013-07-30 09:25:00,66.4,64.6,30.17,North,6,0.0,-999.0,94,0.00,,,0.00,Wunderground v.1.12,2013-07-30 13:25:00,
2013-07-30 09:30:00,66.8,64.7,30.17,North,6,0.0,-999.0,93,0.00,,,0.00,Wunderground v.1.12,2013-07-30 13:30:00,
2013-07-30 09:35:00,67.1,65.0,30.17,North,6,0.0,-999.0,93,0.00,,,0.00,Wunderground v.1.12,2013-07-30 13:35:00,
2013-07-30 09:40:00,67.6,65.2,30.17,North,6,0.0,-999.0,92,0.00,,,0.00,Wunderground v.1.12,2013-07-30 13:40:00,
2013-07-30 09:45:00,67.8,65.1,30.17,NNE,17,0.0,-999.0,91,0.00,,,0.00,Wunderground v.1.12,2013-07-30 13:45:00,
2013-07-30 09:50:00,68.1,64.4,30.17,NNE,17,0.0,-999.0,88,0.00,,,0.00,Wunderground v.1.12,2013-07-30 13:50:00,
2013-07-30 09:55:00,68.6,64.2,30.17,NNE,17,0.0,-999.0,86,0.00,,,0.00,Wunderground v.1.12,2013-07-30 13:55:00,
2013-07-30 10:00:00,69.3,64.3,30.17,NNE,17,0.0,-999.0,84,0.00,,,0.00,Wunderground v.1.12,2013-07-30 14:00:00,
2013-07-30 10:05:00,70.1,64.0,30.17,NNE,26,0.0,-999.0,81,0.00,,,0.00,Wunderground v.1.12,2013-07-30 14:05:00,
2013-07-30 10:10:00,70.9,64.4,30.16,NNE,24,0.0,-999.0,80,0.00,,,0.00,Wunderground v.1.12,2013-07-30 14:10:00,
2013-07-30 10:15:00,71.8,64.2,30.16,NNE,24,0.0,-999.0,77,0.00,,,0.00,Wunderground v.1.12,2013-07-30 14:15:00,
2013-07-30 10:20:00,72.5,64.5,30.16,NNE,24,0.0,-999.0,76,0.00,,,0.00,Wunderground v.1.12,2013-07-30 14:20:00,
2013-07-30 10:25:00,73.5,65.1,30.16,ENE,67,0.0,-999.0,75,0.00,,,0.00,Wunderground v.1.12,2013-07-30 14:25:00,
2013-07-30 10:30:00,74.4,65.6,30.16,ENE,67,0.0,-999.0,74,0.00,,,0.00,Wunderground v.1.12,2013-07-30 14:30:00,
2013-07-30 10:35:00,75.1,65.9,30.16,ENE,67,0.0,-999.0,73,0.00,,,0.00,Wunderground v.1.12,2013-07-30 14:35:00,
2013-07-30 10:40:00,75.6,65.9,30.15,ENE,67,0.0,-999.0,72,0.00,,,0.00,Wunderground v.1.12,2013-07-30 14:40:00,
2013-07-30 10:45:00,76.3,65.8,30.15,NE,54,0.0,-999.0,70,0.00,,,0.00,Wunderground v.1.12,2013-07-30 14:45:00,
2013-07-30 10:50:00,77.2,66.7,30.15,NE,54,0.0,-999.0,70,0.00,,,0.00,Wunderground v.1.12,2013-07-30 14:50:00,
2013-07-30 10:55:00,77.7,66.7,30.14,NE,40,0.0,-999.0,69,0.00,,,0.00,Wunderground v.1.12,2013-07-30 14:55:00,
2013-07-30 11:00:00,78.3,66.0,30.14,NE,40,0.0,-999.0,66,0.00,,,0.00,Wunderground v.1.12,2013-07-30 15:00:00,
2013-07-30 11:05:00,79.0,66.7,30.14,NE,40,0.0,-999.0,66,0.00,,,0.00,Wunderground v.1.12,2013-07-30 15:05:00,
2013-07-30 11:10:00,79.8,67.0,30.14,NE,40,0.0,-999.0,65,0.00,,,0.00,Wunderground v.1.12,2013-07-30 15:10:00,
2013-07-30 11:15:00,80.1,64.0,30.14,NE,40,0.0,-999.0,58,0.00,,,0.00,Wunderground v.1.12,2013-07-30 15:15:00,
2013-07-30 11:21:00,80.7,65.5,30.14,NE,40,0.0,-999.0,60,0.00,,,0.00,Wunderground v.1.12,2013-07-30 15:21:00,
2013-07-30 11:26:00,81.2,65.5,30.14,NE,40,0.0,-999.0,59,0.00,,,0.00,Wunderground v.1.12,2013-07-30 15:26:00,
2013-07-30 11:31:00,81.8,63.5,30.14,NE,37,0.0,-999.0,54,0.00,,,0.00,Wunderground v.1.12,2013-07-30 15:31:00,
2013-07-30 11:36:00,82.4,64.1,30.14,NE,34,0.0,-999.0,54,0.00,,,0.00,Wunderground v.1.12,2013-07-30 15:36:00,
2013-07-30 11:41:00,83.2,63.2,30.14,NE,43,0.0,-999.0,51,0.00,,,0.00,Wunderground v.1.12,2013-07-30 15:41:00,
2013-07-30 11:46:00,83.8,63.2,30.14,NNE,33,0.0,-999.0,50,0.00,,,0.00,Wunderground v.1.12,2013-07-30 15:46:00,
2013-07-30 11:51:00,84.1,63.5,30.14,NNE,31,0.0,-999.0,50,0.00,,,0.00,Wunderground v.1.12,2013-07-30 15:51:00,
2013-07-30 11:56:00,84.7,66.7,30.14,NNE,31,0.0,-999.0,55,0.00,,,0.00,Wunderground v.1.12,2013-07-30 15:56:00,
2013-07-30 12:01:00,84.9,64.2,30.14,NNE,31,0.0,-999.0,50,0.00,,,0.00,Wunderground v.1.12,2013-07-30 16:01:00,
2013-07-30 12:06:00,85.3,64.6,30.14,ENE,58,0.0,-999.0,50,0.00,,,0.00,Wunderground v.1.12,2013-07-30 16:06:00,
2013-07-30 12:11:00,85.7,64.3,30.14,ENE,57,0.0,-999.0,49,0.00,,,0.00,Wunderground v.1.12,2013-07-30 16:11:00,
2013-07-30 12:16:00,85.9,62.1,30.14,NNE,27,0.0,-999.0,45,0.00,,,0.00,Wunderground v.1.12,2013-07-30 16:16:00,
2013-07-30 12:21:00,86.3,62.5,30.14,NNE,27,0.0,-999.0,45,0.00,,,0.00,Wunderground v.1.12,2013-07-30 16:21:00,
2013-07-30 12:27:00,86.5,62.6,30.14,NNE,27,0.0,-999.0,45,0.00,,,0.00,Wunderground v.1.12,2013-07-30 16:27:00,
2013-07-30 12:32:00,87.0,63.7,30.14,NNE,33,0.0,-999.0,46,0.00,,,0.00,Wunderground v.1.12,2013-07-30 16:32:00,
2013-07-30 12:37:00,87.2,62.6,30.14,NNE,33,0.0,-999.0,44,0.00,,,0.00,Wunderground v.1.12,2013-07-30 16:37:00,
2013-07-30 12:42:00,87.4,62.2,30.14,NE,44,0.0,-999.0,43,0.00,,,0.00,Wunderground v.1.12,2013-07-30 16:42:00,
2013-07-30 12:47:00,87.6,56.6,30.14,NNE,24,0.0,-999.0,35,0.00,,,0.00,Wunderground v.1.12,2013-07-30 16:47:00,
2013-07-30 12:52:00,87.8,56.7,30.14,NNE,24,0.0,-999.0,35,0.00,,,0.00,Wunderground v.1.12,2013-07-30 16:52:00,
2013-07-30 12:57:00,88.0,55.3,30.13,NE,44,0.0,-999.0,33,0.00,,,0.00,Wunderground v.1.12,2013-07-30 16:57:00,
2013-07-30 13:02:00,88.4,58.8,30.13,NE,44,0.0,-999.0,37,0.00,,,0.00,Wunderground v.1.12,2013-07-30 17:02:00,
2013-07-30 13:08:00,88.8,55.1,30.13,NE,44,0.0,-999.0,32,0.00,,,0.00,Wunderground v.1.12,2013-07-30 17:08:00,
2013-07-30 13:13:00,89.5,62.0,30.13,NE,44,0.0,-999.0,40,0.00,,,0.00,Wunderground v.1.12,2013-07-30 17:13:00,
2013-07-30 13:18:00,89.9,57.8,30.13,NE,44,0.0,-999.0,34,0.00,,,0.00,Wunderground v.1.12,2013-07-30 17:18:00,
2013-07-30 13:23:00,90.3,58.9,30.13,NE,44,0.0,-999.0,35,0.00,,,0.00,Wunderground v.1.12,2013-07-30 17:23:00,
2013-07-30 13:28:00,91.0,57.0,30.12,NE,44,0.0,-999.0,32,0.00,,,0.00,Wunderground v.1.12,2013-07-30 17:28:00,
2013-07-30 13:33:00,91.8,58.6,30.12,NE,44,0.0,-999.0,33,0.00,,,0.00,Wunderground v.1.12,2013-07-30 17:33:00,
2013-07-30 13:39:00,92.3,57.3,30.12,NE,44,0.0,-999.0,31,0.00,,,0.00,Wunderground v.1.12,2013-07-30 17:39:00,
2013-07-30 13:44:00,92.7,57.6,30.11,NE,44,0.0,-999.0,31,0.00,,,0.00,Wunderground v.1.12,2013-07-30 17:44:00,
2013-07-30 13:49:00,93.4,56.4,30.11,NE,55,0.0,-999.0,29,0.00,,,0.00,Wunderground v.1.12,2013-07-30 17:49:00,
2013-07-30 13:54:00,93.6,55.6,30.11,NE,54,0.0,-999.0,28,0.00,,,0.00,Wunderground v.1.12,2013-07-30 17:54:00,
2013-07-30 13:59:00,93.8,56.7,30.11,NE,46,0.0,-999.0,29,0.00,,,0.00,Wunderground v.1.12,2013-07-30 17:59:00,
2013-07-30 14:04:00,94.0,54.9,30.11,NNE,31,0.0,-999.0,27,0.00,,,0.00,Wunderground v.1.12,2013-07-30 18:04:00,
2013-07-30 14:09:00,94.0,55.9,30.11,NE,38,0.0,-999.0,28,0.00,,,0.00,Wunderground v.1.12,2013-07-30 18:09:00,
2013-07-30 14:14:00,94.0,55.9,30.11,NE,38,0.0,-999.0,28,0.00,,,0.00,Wunderground v.1.12,2013-07-30 18:14:00,
2013-07-30 14:19:00,94.0,54.9,30.11,NE,38,0.0,-999.0,27,0.00,,,0.00,Wunderground v.1.12,2013-07-30 18:19:00,
2013-07-30 14:24:00,93.8,54.8,30.11,NE,38,0.0,-999.0,27,0.00,,,0.00,Wunderground v.1.12,2013-07-30 18:24:00,
2013-07-30 14:29:00,93.6,55.6,30.10,NE,38,0.0,-999.0,28,0.00,,,0.00,Wunderground v.1.12,2013-07-30 18:29:00,
2013-07-30 14:34:00,93.2,54.3,30.10,NNE,33,0.0,-999.0,27,0.00,,,0.00,Wunderground v.1.12,2013-07-30 18:34:00,
2013-07-30 14:39:00,92.9,56.9,30.10,NNE,33,0.0,-999.0,30,0.00,,,0.00,Wunderground v.1.12,2013-07-30 18:39:00,
2013-07-30 14:44:00,92.7,57.6,30.11,NNE,33,0.0,-999.0,31,0.00,,,0.00,Wunderground v.1.12,2013-07-30 18:44:00,
2013-07-30 14:49:00,92.5,56.6,30.11,NNE,33,0.0,-999.0,30,0.00,,,0.00,Wunderground v.1.12,2013-07-30 18:49:00,
2013-07-30 14:54:00,92.1,60.5,30.11,NNE,33,0.0,-999.0,35,0.00,,,0.00,Wunderground v.1.12,2013-07-30 18:54:00,
2013-07-30 14:59:00,91.6,58.4,30.10,NNE,33,0.0,-999.0,33,0.00,,,0.00,Wunderground v.1.12,2013-07-30 18:59:00,
2013-07-30 15:04:00,91.0,56.2,30.10,ENE,61,0.0,-999.0,31,0.00,,,0.00,Wunderground v.1.12,2013-07-30 19:04:00,
2013-07-30 15:09:00,90.5,56.6,30.10,ENE,61,0.0,-999.0,32,0.00,,,0.00,Wunderground v.1.12,2013-07-30 19:09:00,
2013-07-30 15:14:00,90.3,55.6,30.10,NNE,23,0.0,-999.0,31,0.00,,,0.00,Wunderground v.1.12,2013-07-30 19:14:00,
2013-07-30 15:19:00,89.9,55.2,30.10,NNE,23,0.0,-999.0,31,0.00,,,0.00,Wunderground v.1.12,2013-07-30 19:19:00,
2013-07-30 15:24:00,89.7,55.0,30.10,NE,43,0.0,-999.0,31,0.00,,,0.00,Wunderground v.1.12,2013-07-30 19:24:00,
2013-07-30 15:29:00,89.3,55.6,30.09,ENE,70,0.0,-999.0,32,0.00,,,0.00,Wunderground v.1.12,2013-07-30 19:29:00,
2013-07-30 15:34:00,89.0,55.3,30.09,ENE,70,0.0,-999.0,32,0.00,,,0.00,Wunderground v.1.12,2013-07-30 19:34:00,
2013-07-30 15:39:00,88.8,59.9,30.09,ENE,68,0.0,-999.0,38,0.00,,,0.00,Wunderground v.1.12,2013-07-30 19:39:00,
2013-07-30 15:44:00,88.4,59.6,30.09,ENE,68,0.0,-999.0,38,0.00,,,0.00,Wunderground v.1.12,2013-07-30 19:44:00,
2013-07-30 15:49:00,88.2,58.6,30.09,ENE,68,0.0,-999.0,37,0.00,,,0.00,Wunderground v.1.12,2013-07-30 19:49:00,
2013-07-30 15:54:00,88.2,56.3,30.09,ENE,67,0.0,-999.0,34,0.00,,,0.00,Wunderground v.1.12,2013-07-30 19:54:00,
2013-07-30 15:59:00,88.2,58.6,30.09,ENE,64,0.0,-999.0,37,0.00,,,0.00,Wunderground v.1.12,2013-07-30 19:59:00,
2013-07-30 16:05:00,88.2,56.3,30.09,ENE,64,0.0,-999.0,34,0.00,,,0.00,Wunderground v.1.12,2013-07-30 20:05:00,
2013-07-30 16:10:00,88.2,58.6,30.08,ENE,64,0.0,-999.0,37,0.00,,,0.00,Wunderground v.1.12,2013-07-30 20:10:00,
2013-07-30 16:15:00,88.4,62.4,30.08,ENE,64,0.0,-999.0,42,0.00,,,0.00,Wunderground v.1.12,2013-07-30 20:15:00,
2013-07-30 16:20:00,88.4,61.7,30.08,ENE,64,0.0,-999.0,41,0.00,,,0.00,Wunderground v.1.12,2013-07-30 20:20:00,
2013-07-30 16:25:00,88.4,65.6,30.08,ENE,64,0.0,-999.0,47,0.00,,,0.00,Wunderground v.1.12,2013-07-30 20:25:00,
2013-07-30 16:30:00,88.2,63.5,30.08,ENE,64,0.0,-999.0,44,0.00,,,0.00,Wunderground v.1.12,2013-07-30 20:30:00,
2013-07-30 16:35:00,88.0,62.7,30.08,ENE,64,0.0,-999.0,43,0.00,,,0.00,Wunderground v.1.12,2013-07-30 20:35:00,
2013-07-30 16:40:00,87.8,63.2,30.07,ENE,64,0.0,-999.0,44,0.00,,,0.00,Wunderground v.1.12,2013-07-30 20:40:00,
2013-07-30 16:45:00,87.6,64.3,30.07,ENE,64,0.0,-999.0,46,0.00,,,0.00,Wunderground v.1.12,2013-07-30 20:45:00,
2013-07-30 16:50:00,87.2,63.3,30.07,ENE,64,0.0,-999.0,45,0.00,,,0.00,Wunderground v.1.12,2013-07-30 20:50:00,
2013-07-30 16:55:00,87.0,63.7,30.08,ENE,68,0.0,-999.0,46,0.00,,,0.00,Wunderground v.1.12,2013-07-30 20:55:00,
2013-07-30 17:00:00,86.5,64.5,30.08,ENE,68,0.0,-999.0,48,0.00,,,0.00,Wunderground v.1.12,2013-07-30 21:00:00,
2013-07-30 17:05:00,86.3,64.9,30.08,ENE,68,0.0,-999.0,49,0.00,,,0.00,Wunderground v.1.12,2013-07-30 21:05:00,
2013-07-30 17:10:00,86.1,64.1,30.08,ENE,68,0.0,-999.0,48,0.00,,,0.00,Wunderground v.1.12,2013-07-30 21:10:00,
2013-07-30 17:15:00,85.9,65.1,30.08,ENE,68,0.0,-999.0,50,0.00,,,0.00,Wunderground v.1.12,2013-07-30 21:15:00,
2013-07-30 17:20:00,85.7,64.3,30.08,ENE,68,0.0,-999.0,49,0.00,,,0.00,Wunderground v.1.12,2013-07-30 21:20:00,
2013-07-30 17:25:00,85.5,65.3,30.07,ENE,68,0.0,-999.0,51,0.00,,,0.00,Wunderground v.1.12,2013-07-30 21:25:00,
2013-07-30 17:30:00,85.3,65.1,30.07,ENE,68,0.0,-999.0,51,0.00,,,0.00,Wunderground v.1.12,2013-07-30 21:30:00,
2013-07-30 17:35:00,84.9,61.8,30.07,ENE,68,0.0,-999.0,46,0.00,,,0.00,Wunderground v.1.12,2013-07-30 21:35:00,
2013-07-30 17:40:00,84.7,59.7,30.07,NE,38,0.0,-999.0,43,0.00,,,0.00,Wunderground v.1.12,2013-07-30 21:40:00,
2013-07-30 17:45:00,84.7,61.0,30.07,NE,38,0.0,-999.0,45,0.00,,,0.00,Wunderground v.1.12,2013-07-30 21:45:00,
2013-07-30 17:50:00,84.9,63.6,30.07,NE,40,0.0,-999.0,49,0.00,,,0.00,Wunderground v.1.12,2013-07-30 21:50:00,
2013-07-30 17:55:00,84.7,61.0,30.07,NE,40,0.0,-999.0,45,0.00,,,0.00,Wunderground v.1.12,2013-07-30 21:55:00,
2013-07-30 18:00:00,84.7,59.1,30.07,NE,40,0.0,-999.0,42,0.00,,,0.00,Wunderground v.1.12,2013-07-30 22:00:00,
2013-07-30 18:05:00,84.7,59.7,30.07,NNE,30,0.0,-999.0,43,0.00,,,0.00,Wunderground v.1.12,2013-07-30 22:05:00,
2013-07-30 18:10:00,84.9,59.9,30.07,NNE,17,0.0,-999.0,43,0.00,,,0.00,Wunderground v.1.12,2013-07-30 22:10:00,
2013-07-30 18:16:00,85.1,59.4,30.07,NNE,17,0.0,-999.0,42,0.00,,,0.00,Wunderground v.1.12,2013-07-30 22:16:00,
2013-07-30 18:21:00,85.1,60.1,30.07,NNE,20,0.0,-999.0,43,0.00,,,0.00,Wunderground v.1.12,2013-07-30 22:21:00,
2013-07-30 18:26:00,85.3,60.3,30.07,NNE,19,0.0,-999.0,43,0.00,,,0.00,Wunderground v.1.12,2013-07-30 22:26:00,
2013-07-30 18:31:00,85.3,60.3,30.07,NNE,19,0.0,-999.0,43,0.00,,,0.00,Wunderground v.1.12,2013-07-30 22:31:00,
2013-07-30 18:36:00,85.3,60.9,30.07,NNE,27,0.0,-999.0,44,0.00,,,0.00,Wunderground v.1.12,2013-07-30 22:36:00,
2013-07-30 18:41:00,85.5,62.4,30.06,NNE,27,0.0,-999.0,46,0.00,,,0.00,Wunderground v.1.12,2013-07-30 22:41:00,
2013-07-30 18:46:00,85.3,61.6,30.06,NNE,27,0.0,-999.0,45,0.00,,,0.00,Wunderground v.1.12,2013-07-30 22:46:00,
2013-07-30 18:51:00,85.3,64.0,30.06,NE,36,0.0,-999.0,49,0.00,,,0.00,Wunderground v.1.12,2013-07-30 22:51:00,
2013-07-30 18:56:00,85.3,62.2,30.06,NE,34,0.0,-999.0,46,0.00,,,0.00,Wunderground v.1.12,2013-07-30 22:56:00,
2013-07-30 19:01:00,85.1,60.7,30.06,NE,34,0.0,-999.0,44,0.00,,,0.00,Wunderground v.1.12,2013-07-30 23:01:00,
2013-07-30 19:06:00,85.1,60.1,30.06,NNE,29,0.0,-999.0,43,0.00,,,0.00,Wunderground v.1.12,2013-07-30 23:06:00,
2013-07-30 19:11:00,84.9,62.4,30.06,NNE,29,0.0,-999.0,47,0.00,,,0.00,Wunderground v.1.12,2013-07-30 23:11:00,
2013-07-30 19:16:00,84.9,63.6,30.06,NNE,29,0.0,-999.0,49,0.00,,,0.00,Wunderground v.1.12,2013-07-30 23:16:00,
2013-07-30 19:22:00,84.9,65.3,30.06,NNE,29,0.0,-999.0,52,0.00,,,0.00,Wunderground v.1.12,2013-07-30 23:22:00,
2013-07-30 19:27:00,84.5,66.0,30.06,NE,44,0.0,-999.0,54,0.00,,,0.00,Wunderground v.1.12,2013-07-30 23:27:00,
2013-07-30 19:32:00,84.0,65.6,30.06,NE,44,0.0,-999.0,54,0.00,,,0.00,Wunderground v.1.12,2013-07-30 23:32:00,
2013-07-30 19:37:00,83.8,65.9,30.06,NE,44,0.0,-999.0,55,0.00,,,0.00,Wunderground v.1.12,2013-07-30 23:37:00,
2013-07-30 19:42:00,83.4,65.5,30.06,NE,44,0.0,-999.0,55,0.00,,,0.00,Wunderground v.1.12,2013-07-30 23:42:00,
2013-07-30 19:47:00,82.8,65.0,30.06,NE,44,0.0,-999.0,55,0.00,,,0.00,Wunderground v.1.12,2013-07-30 23:47:00,
2013-07-30 19:52:00,82.4,65.6,30.06,NE,44,0.0,-999.0,57,0.00,,,0.00,Wunderground v.1.12,2013-07-30 23:52:00,
2013-07-30 19:57:00,82.0,65.8,30.07,NE,44,0.0,-999.0,58,0.00,,,0.00,Wunderground v.1.12,2013-07-30 23:57:00,
2013-07-30 20:02:00,81.6,65.9,30.07,NE,44,0.0,-999.0,59,0.00,,,0.00,Wunderground v.1.12,2013-07-31 00:02:00,
2013-07-30 20:07:00,81.2,65.5,30.07,NE,44,0.0,-999.0,59,0.00,,,0.00,Wunderground v.1.12,2013-07-31 00:07:00,
2013-07-30 20:12:00,80.9,65.2,30.06,NE,44,0.0,-999.0,59,0.00,,,0.00,Wunderground v.1.12,2013-07-31 00:12:00,
2013-07-30 20:17:00,80.5,64.9,30.06,NE,44,0.0,-999.0,59,0.00,,,0.00,Wunderground v.1.12,2013-07-31 00:17:00,
2013-07-30 20:22:00,80.1,65.4,30.06,NE,44,0.0,-999.0,61,0.00,,,0.00,Wunderground v.1.12,2013-07-31 00:22:00,
2013-07-30 20:27:00,79.8,65.6,30.07,NE,44,0.0,-999.0,62,0.00,,,0.00,Wunderground v.1.12,2013-07-31 00:27:00,
2013-07-30 20:32:00,79.6,66.3,30.07,NE,44,0.0,-999.0,64,0.00,,,0.00,Wunderground v.1.12,2013-07-31 00:32:00,
2013-07-30 20:37:00,79.2,66.0,30.07,NE,44,0.0,-999.0,64,0.00,,,0.00,Wunderground v.1.12,2013-07-31 00:37:00,
2013-07-30 20:42:00,78.8,65.6,30.07,NE,44,0.0,-999.0,64,0.00,,,0.00,Wunderground v.1.12,2013-07-31 00:42:00,
2013-07-30 20:47:00,78.5,66.2,30.07,NE,44,0.0,-999.0,66,0.00,,,0.00,Wunderground v.1.12,2013-07-31 00:47:00,
2013-07-30 20:52:00,78.1,65.8,30.07,NE,44,0.0,-999.0,66,0.00,,,0.00,Wunderground v.1.12,2013-07-31 00:52:00,
2013-07-30 20:58:00,77.7,65.0,30.08,NE,44,0.0,-999.0,65,0.00,,,0.00,Wunderground v.1.12,2013-07-31 00:58:00,
2013-07-30 21:03:00,77.4,64.7,30.08,NE,44,0.0,-999.0,65,0.00,,,0.00,Wunderground v.1.12,2013-07-31 01:03:00,
2013-07-30 21:08:00,77.0,64.8,30.08,NE,44,0.0,-999.0,66,0.00,,,0.00,Wunderground v.1.12,2013-07-31 01:08:00,
2013-07-30 21:13:00,76.8,65.0,30.08,NE,44,0.0,-999.0,67,0.00,,,0.00,Wunderground v.1.12,2013-07-31 01:13:00,
2013-07-30 21:18:00,76.7,64.9,30.08,NE,44,0.0,-999.0,67,0.00,,,0.00,Wunderground v.1.12,2013-07-31 01:18:00,
2013-07-30 21:23:00,76.3,64.5,30.08,NE,44,0.0,-999.0,67,0.00,,,0.00,Wunderground v.1.12,2013-07-31 01:23:00,
2013-07-30 21:28:00,76.1,64.3,30.08,NE,44,0.0,-999.0,67,0.00,,,0.00,Wunderground v.1.12,2013-07-31 01:28:00,
2013-07-30 21:34:00,76.0,65.1,30.08,NE,44,0.0,-999.0,69,0.00,,,0.00,Wunderground v.1.12,2013-07-31 01:34:00,
2013-07-30 21:39:00,75.8,64.9,30.08,NE,44,0.0,-999.0,69,0.00,,,0.00,Wunderground v.1.12,2013-07-31 01:39:00,
2013-07-30 21:44:00,75.6,65.1,30.08,NE,44,0.0,-999.0,70,0.00,,,0.00,Wunderground v.1.12,2013-07-31 01:44:00,
2013-07-30 21:49:00,75.4,64.9,30.08,NE,44,0.0,-999.0,70,0.00,,,0.00,Wunderground v.1.12,2013-07-31 01:49:00,
2013-07-30 21:54:00,75.3,64.8,30.08,NE,44,0.0,-999.0,70,0.00,,,0.00,Wunderground v.1.12,2013-07-31 01:54:00,
2013-07-30 21:59:00,75.3,64.8,30.09,NE,44,0.0,-999.0,70,0.00,,,0.00,Wunderground v.1.12,2013-07-31 01:59:00,
2013-07-30 22:04:00,75.1,64.6,30.09,NE,44,0.0,-999.0,70,0.00,,,0.00,Wunderground v.1.12,2013-07-31 02:04:00,
2013-07-30 22:09:00,75.1,65.1,30.08,NE,44,0.0,-999.0,71,0.00,,,0.00,Wunderground v.1.12,2013-07-31 02:09:00,
2013-07-30 22:14:00,74.9,65.3,30.08,NE,44,0.0,-999.0,72,0.00,,,0.00,Wunderground v.1.12,2013-07-31 02:14:00,
2013-07-30 22:19:00,74.9,65.3,30.08,NE,44,0.0,-999.0,72,0.00,,,0.00,Wunderground v.1.12,2013-07-31 02:19:00,
2013-07-30 22:24:00,74.7,65.1,30.09,NE,44,0.0,-999.0,72,0.00,,,0.00,Wunderground v.1.12,2013-07-31 02:24:00,
2013-07-30 22:30:00,74.7,65.1,30.09,NE,44,0.0,-999.0,72,0.00,,,0.00,Wunderground v.1.12,2013-07-31 02:30:00,
2013-07-30 22:35:00,74.6,65.0,30.09,NE,44,0.0,-999.0,72,0.00,,,0.00,Wunderground v.1.12,2013-07-31 02:35:00,
2013-07-30 22:40:00,74.6,65.0,30.09,NE,44,0.0,-999.0,72,0.00,,,0.00,Wunderground v.1.12,2013-07-31 02:40:00,
2013-07-30 22:45:00,74.6,65.4,30.09,NE,44,0.0,-999.0,73,0.00,,,0.00,Wunderground v.1.12,2013-07-31 02:45:00,
2013-07-30 22:50:00,74.6,65.4,30.09,NE,44,0.0,-999.0,73,0.00,,,0.00,Wunderground v.1.12,2013-07-31 02:50:00,
2013-07-30 22:55:00,74.6,65.8,30.09,NE,44,0.0,-999.0,74,0.00,,,0.00,Wunderground v.1.12,2013-07-31 02:55:00,
2013-07-30 23:00:00,74.6,65.8,30.09,NE,44,0.0,-999.0,74,0.00,,,0.00,Wunderground v.1.12,2013-07-31 03:00:00,
2013-07-30 23:05:00,74.4,65.6,30.09,NE,44,0.0,-999.0,74,0.00,,,0.00,Wunderground v.1.12,2013-07-31 03:05:00,
2013-07-30 23:10:00,74.4,65.6,30.08,NE,44,0.0,-999.0,74,0.00,,,0.00,Wunderground v.1.12,2013-07-31 03:10:00,
2013-07-30 23:15:00,74.4,65.6,30.08,NE,44,0.0,-999.0,74,0.00,,,0.00,Wunderground v.1.12,2013-07-31 03:15:00,
2013-07-30 23:20:00,74.4,66.0,30.08,NE,44,0.0,-999.0,75,0.00,,,0.00,Wunderground v.1.12,2013-07-31 03:20:00,
2013-07-30 23:25:00,74.4,66.0,30.08,NE,44,0.0,-999.0,75,0.00,,,0.00,Wunderground v.1.12,2013-07-31 03:25:00,
2013-07-30 23:30:00,74.4,66.0,30.08,NE,44,0.0,-999.0,75,0.00,,,0.00,Wunderground v.1.12,2013-07-31 03:30:00,
2013-07-30 23:35:00,74.4,66.0,30.08,NE,44,0.0,-999.0,75,0.00,,,0.00,Wunderground v.1.12,2013-07-31 03:35:00,
2013-07-30 23:40:00,74.2,66.1,30.08,NE,44,0.0,-999.0,76,0.00,,,0.00,Wunderground v.1.12,2013-07-31 03:40:00,
2013-07-30 23:45:00,74.2,66.1,30.08,NE,44,0.0,-999.0,76,0.00,,,0.00,Wunderground v.1.12,2013-07-31 03:45:00,
2013-07-30 23:50:00,74.2,66.1,30.08,NE,44,0.0,-999.0,76,0.00,,,0.00,Wunderground v.1.12,2013-07-31 03:50:00,
2013-07-30 23:55:00,74.2,66.1,30.08,NE,44,0.0,-999.0,76,0.00,,,0.00,Wunderground v.1.12,2013-07-31 03:55:00,